Date,TemperatureHighF,TemperatureAvgF,TemperatureLowF,DewpointHighF,DewpointAvgF,DewpointLowF,HumidityHigh,HumidityAvg,HumidityLow,PressureMaxIn,PressureMinIn,WindSpeedMaxMPH,WindSpeedAvgMPH,GustSpeedMaxMPH,PrecipitationSumIn
2013-2-1,68.0,57.3,48.0,28.0,22.8,16.0,34,27,16,0.00,40.00,7,3,13,0.00
2013-2-2,67.0,57.9,51.0,26.0,21.5,13.0,31,24,19,0.00,40.00,6,1,10,0.00
2013-2-3,61.0,56.1,53.0,31.0,26.4,22.0,38,32,26,0.00,40.00,13,5,24,0.00
2013-2-4,66.0,58.3,51.0,29.0,21.7,7.0,42,25,14,0.00,40.00,15,7,22,0.00
2013-2-5,67.0,57.5,49.0,26.0,19.4,8.0,28,23,16,0.00,40.00,9,3,15,0.00
2013-2-6,64.0,56.1,50.0,28.0,23.1,17.0,37,28,20,0.00,40.00,9,4,18,0.00
2013-2-7,63.0,55.4,45.0,24.0,21.4,16.0,39,27,18,0.00,40.00,12,6,22,0.00
2013-2-8,54.0,43.3,33.0,33.0,25.7,13.0,95,54,26,0.00,40.00,19,8,40,0.00
2013-2-9,45.0,37.2,32.0,33.0,26.8,19.0,96,69,38,0.00,40.00,10,4,17,0.03
2013-2-10,45.0,39.5,35.0,23.0,18.2,11.0,54,43,25,0.00,40.00,8,3,17,0.01
2013-2-11,45.0,37.8,32.0,21.0,13.3,7.0,55,38,21,0.00,40.00,21,11,35,0.00
2013-2-12,52.0,43.3,33.0,10.0,6.0,-1.0,32,22,14,0.00,40.00,15,8,28,0.00
2013-2-13,58.0,47.5,39.0,21.0,17.7,11.0,39,30,24,0.00,40.00,21,9,29,0.00
2013-2-14,61.0,53.8,49.0,23.0,20.1,17.0,31,27,22,0.00,40.00,18,10,28,0.00
2013-2-15,63.0,55.0,48.0,17.0,12.3,5.0,28,19,12,0.00,40.00,18,12,27,0.00
2013-2-16,71.0,61.1,50.0,16.0,8.5,0.0,17,13,6,0.00,40.00,8,4,12,0.00
2013-2-17,64.0,58.0,48.0,12.0,7.1,3.0,18,13,10,0.00,40.00,9,6,19,0.00
2013-2-18,65.0,55.3,48.0,18.0,11.4,3.0,27,18,13,0.00,40.00,14,4,20,0.00
2013-2-19,58.0,50.5,43.0,28.0,19.3,9.0,56,30,18,0.00,40.00,14,7,31,0.00
2013-2-20,43.0,35.7,32.0,35.0,32.4,27.0,96,88,53,0.00,40.00,12,4,27,0.44
2013-2-21,45.0,37.1,32.0,34.0,29.6,15.0,93,76,40,0.00,40.00,6,2,15,0.01
2013-2-22,51.0,44.1,35.0,19.0,15.6,14.0,49,32,25,0.00,40.00,14,7,25,0.00
2013-2-23,57.0,46.8,39.0,22.0,15.8,2.0,39,29,21,0.00,40.00,17,7,34,0.00
2013-2-24,47.0,39.4,33.0,12.0,6.7,2.0,37,26,18,0.00,40.00,17,13,38,0.00
2013-2-25,55.0,43.8,34.0,10.0,7.0,-3.0,34,23,9,0.00,40.00,20,5,31,0.00
2013-2-26,51.0,44.6,39.0,10.0,6.7,2.0,27,21,13,0.00,40.00,15,8,30,0.00
2013-2-27,52.0,45.9,36.0,6.0,0.9,-4.0,23,15,12,0.00,40.00,14,11,26,0.00
2013-2-28,61.0,54.1,43.0,9.0,4.5,-2.0,17,13,10,0.00,40.00,16,9,28,0.00